TimeCDT,TemperatureF,Dew PointF,Humidity,Sea Level PressureIn,VisibilityMPH,Wind Direction,Wind SpeedMPH,Gust SpeedMPH,PrecipitationIn,Events,Conditions,WindDirDegrees,DateUTC
12:15 AM,33.8,32.0,93,30.34,10.0,NNW,9.2,-,N/A,,Overcast,340,2012-10-06 05:15:00
12:35 AM,33.8,32.0,93,30.34,10.0,NNW,10.4,-,N/A,,Overcast,340,2012-10-06 05:35:00
12:55 AM,35.6,32.0,87,30.34,10.0,NNW,11.5,-,N/A,,Overcast,330,2012-10-06 05:55:00
1:15 AM,33.8,32.0,93,30.34,10.0,NNW,8.1,-,N/A,,Mostly Cloudy,340,2012-10-06 06:15:00
1:35 AM,33.8,32.0,93,30.34,10.0,NNW,5.8,-,N/A,,Mostly Cloudy,340,2012-10-06 06:35:00
1:55 AM,33.8,32.0,93,30.34,10.0,NNW,5.8,-,N/A,,Mostly Cloudy,340,2012-10-06 06:55:00
2:15 AM,33.8,32.0,93,30.35,10.0,North,5.8,-,N/A,,Overcast,360,2012-10-06 07:15:00
2:35 AM,33.8,32.0,93,30.35,10.0,NNW,4.6,-,N/A,,Overcast,340,2012-10-06 07:35:00
2:55 AM,32.0,32.0,100,30.35,10.0,NNW,4.6,-,N/A,,Scattered Clouds,340,2012-10-06 07:55:00
3:15 AM,32.0,32.0,100,30.35,10.0,NNW,3.5,-,N/A,,Clear,340,2012-10-06 08:15:00
3:35 AM,32.0,32.0,100,30.34,10.0,West,3.5,-,N/A,,Clear,270,2012-10-06 08:35:00
3:55 AM,32.0,32.0,100,30.35,10.0,Calm,Calm,-,N/A,,Clear,0,2012-10-06 08:55:00
4:15 AM,32.0,32.0,100,30.35,10.0,West,3.5,-,N/A,,Clear,280,2012-10-06 09:15:00
4:35 AM,32.0,32.0,100,30.34,10.0,Calm,Calm,-,N/A,,Clear,0,2012-10-06 09:35:00
4:55 AM,30.2,30.2,100,30.34,10.0,Calm,Calm,-,N/A,,Clear,0,2012-10-06 09:55:00
5:15 AM,30.2,30.2,100,30.34,10.0,West,4.6,-,N/A,,Clear,270,2012-10-06 10:15:00
5:35 AM,30.2,28.4,93,30.34,10.0,WNW,3.5,-,N/A,,Clear,290,2012-10-06 10:35:00
5:55 AM,28.4,28.4,100,30.34,10.0,West,4.6,-,N/A,,Clear,280,2012-10-06 10:55:00
6:15 AM,28.4,28.4,100,30.34,10.0,West,4.6,-,N/A,,Clear,260,2012-10-06 11:15:00
6:35 AM,28.4,28.4,100,30.34,10.0,West,6.9,-,N/A,,Clear,270,2012-10-06 11:35:00
6:55 AM,28.4,26.6,93,30.34,10.0,West,8.1,-,N/A,,Clear,270,2012-10-06 11:55:00
7:15 AM,28.4,26.6,93,30.35,10.0,West,6.9,-,N/A,,Clear,280,2012-10-06 12:15:00
7:35 AM,28.4,26.6,93,30.35,10.0,West,6.9,-,N/A,,Clear,280,2012-10-06 12:35:00
7:55 AM,28.4,26.6,93,30.35,10.0,West,6.9,-,N/A,,Clear,280,2012-10-06 12:55:00
8:15 AM,28.4,26.6,93,30.35,10.0,West,8.1,-,N/A,,Clear,280,2012-10-06 13:15:00
8:35 AM,28.4,26.6,93,30.35,10.0,West,8.1,-,N/A,,Clear,270,2012-10-06 13:35:00
9:15 AM,32.0,28.4,87,30.35,10.0,West,3.5,-,N/A,,Clear,280,2012-10-06 14:15:00
9:35 AM,32.0,28.4,87,30.36,10.0,West,6.9,-,N/A,,Clear,270,2012-10-06 14:35:00
9:55 AM,32.0,28.4,87,30.35,10.0,West,6.9,-,N/A,,Clear,270,2012-10-06 14:55:00
10:15 AM,35.6,30.2,81,30.35,10.0,WNW,9.2,-,N/A,,Clear,290,2012-10-06 15:15:00
10:35 AM,37.4,32.0,81,30.35,10.0,West,6.9,-,N/A,,Clear,280,2012-10-06 15:35:00
10:55 AM,37.4,30.2,75,30.36,10.0,WNW,11.5,-,N/A,,Clear,290,2012-10-06 15:55:00
11:15 AM,39.2,30.2,70,30.35,10.0,WNW,11.5,-,N/A,,Clear,290,2012-10-06 16:15:00
11:35 AM,39.2,30.2,70,30.35,10.0,WNW,10.4,-,N/A,,Clear,300,2012-10-06 16:35:00
11:55 AM,41.0,30.2,65,30.35,10.0,West,10.4,-,N/A,,Clear,280,2012-10-06 16:55:00
12:15 PM,41.0,30.2,65,30.34,10.0,West,15.0,-,N/A,,Clear,270,2012-10-06 17:15:00
12:35 PM,41.0,28.4,61,30.33,10.0,NW,15.0,-,N/A,,Clear,310,2012-10-06 17:35:00
12:55 PM,41.0,28.4,61,30.33,10.0,WNW,11.5,16.1,N/A,,Clear,290,2012-10-06 17:55:00
1:15 PM,42.8,28.4,57,30.32,10.0,West,11.5,18.4,N/A,,Clear,280,2012-10-06 18:15:00
1:35 PM,44.6,28.4,53,30.30,10.0,WNW,10.4,-,N/A,,Clear,300,2012-10-06 18:35:00
1:55 PM,44.6,26.6,49,30.29,10.0,West,9.2,-,N/A,,Clear,280,2012-10-06 18:55:00
2:15 PM,44.6,26.6,49,30.28,10.0,NW,12.7,17.3,N/A,,Clear,310,2012-10-06 19:15:00
2:35 PM,44.6,30.2,57,30.27,10.0,West,9.2,16.1,N/A,,Clear,260,2012-10-06 19:35:00
2:55 PM,44.6,30.2,57,30.26,10.0,West,10.4,-,N/A,,Clear,260,2012-10-06 19:55:00
3:15 PM,44.6,28.4,53,30.26,10.0,West,12.7,17.3,N/A,,Clear,280,2012-10-06 20:15:00
3:35 PM,44.6,28.4,53,30.24,10.0,WSW,9.2,-,N/A,,Clear,250,2012-10-06 20:35:00
3:55 PM,46.4,32.0,57,30.23,10.0,West,9.2,18.4,N/A,,Clear,280,2012-10-06 20:55:00
4:15 PM,46.4,28.4,50,30.22,10.0,West,8.1,-,N/A,,Clear,260,2012-10-06 21:15:00
4:35 PM,46.4,28.4,50,30.21,10.0,West,10.4,16.1,N/A,,Clear,260,2012-10-06 21:35:00
4:55 PM,46.4,26.6,46,30.20,10.0,WSW,13.8,17.3,N/A,,Clear,250,2012-10-06 21:55:00
5:15 PM,44.6,24.8,46,30.20,10.0,WSW,12.7,18.4,N/A,,Clear,250,2012-10-06 22:15:00
5:35 PM,46.4,26.6,46,30.19,10.0,WSW,9.2,-,N/A,,Clear,250,2012-10-06 22:35:00
6:15 PM,44.6,26.6,49,30.18,10.0,WSW,9.2,-,N/A,,Clear,250,2012-10-06 23:15:00
6:35 PM,42.8,26.6,53,30.17,10.0,WSW,8.1,-,N/A,,Clear,250,2012-10-06 23:35:00
6:55 PM,41.0,26.6,57,30.17,10.0,SW,5.8,-,N/A,,Clear,230,2012-10-06 23:55:00
7:15 PM,41.0,26.6,57,30.16,10.0,SW,5.8,-,N/A,,Clear,230,2012-10-07 00:15:00
7:35 PM,39.2,28.4,65,30.16,10.0,SW,4.6,-,N/A,,Clear,220,2012-10-07 00:35:00
7:55 PM,39.2,28.4,65,30.16,10.0,SW,5.8,-,N/A,,Clear,220,2012-10-07 00:55:00
8:15 PM,37.4,28.4,70,30.15,10.0,SSW,5.8,-,N/A,,Clear,210,2012-10-07 01:15:00
8:35 PM,37.4,28.4,70,30.14,10.0,SSW,5.8,-,N/A,,Clear,210,2012-10-07 01:35:00
8:55 PM,37.4,28.4,70,30.14,10.0,SW,6.9,-,N/A,,Clear,220,2012-10-07 01:55:00
9:15 PM,37.4,28.4,70,30.13,10.0,SW,6.9,-,N/A,,Clear,220,2012-10-07 02:15:00
9:35 PM,35.6,28.4,75,30.12,10.0,SSW,6.9,-,N/A,,Clear,210,2012-10-07 02:35:00
9:55 PM,35.6,28.4,75,30.11,10.0,SW,8.1,-,N/A,,Clear,220,2012-10-07 02:55:00
10:15 PM,33.8,28.4,81,30.10,10.0,SSW,6.9,-,N/A,,Clear,210,2012-10-07 03:15:00
10:35 PM,32.0,28.4,87,30.10,10.0,SSW,6.9,-,N/A,,Clear,210,2012-10-07 03:35:00
10:55 PM,32.0,26.6,80,30.09,10.0,SW,6.9,-,N/A,,Clear,220,2012-10-07 03:55:00
11:35 PM,33.8,26.6,75,30.07,10.0,SW,6.9,-,N/A,,Clear,220,2012-10-07 04:35:00
11:55 PM,33.8,24.8,70,30.06,10.0,SW,6.9,-,N/A,,Clear,220,2012-10-07 04:55:00